Gillette, WY

7:50 PM MDT on May 28, 2017 (GMT -0600)
Gillette-Campbell County

Weather History for KGCC - May, 2012

Change the Weather History Date:

Thursday, May 10, 2012

  Actual Average Record
Temperature  
Mean Temperature 54 °F 51 °F  
Max Temperature 69 °F 64 °F 92 °F (1934)
Min Temperature 39 °F 38 °F 22 °F (1927)
Degree Days  
Heating Degree Days 11 14  
Month to date heating degree days 147 155  
Since 1 July heating degree days 6421 7171  
Cooling Degree Days 0 0  
Month to date cooling degree days 0 0  
Year to date cooling degree days 2 0  
Growing Degree Days 6 (Base 50)    
Moisture  
Dew Point 34 °F    
Average Humidity 52    
Maximum Humidity 76    
Minimum Humidity 28    
Precipitation  
Precipitation 0.00 in 0.08 in 1.73 in (1985)
Month to date precipitation 0.28 0.69  
Year to date precipitation 4.21 3.90  
Sea Level Pressure  
Sea Level Pressure 29.81 in    
Wind  
Wind Speed 15 mph (NNW)    
Max Wind Speed 39 mph    
Max Gust Speed 47 mph    
Visibility 10 miles    
Events      
T = Trace of Precipitation, MM = Missing Value Source: NWS Daily Summary

Daily Weather History Graph

Daily Weather History Graph

Search for Another Location

Airport or City:

Trip Planner

Search our weather history database for the weather conditions in past years. The results will help you decide how hot, cold, wet, or windy it might be!

Date:

Astronomy

May. 10, 2012 Rise Set
Actual Time 5:40 AM MDT 8:17 PM MDT
Civil Twilight 5:07 AM MDT 8:50 PM MDT
Nautical Twilight 4:25 AM MDT 9:32 PM MDT
Astronomical Twilight 3:38 AM MDT 10:20 PM MDT
Moon 12:18 AM MDT (5/10) 10:07 AM MDT (5/10)
Length of Visible Light 15h 43m
Length of Day
14h 37m
Waning Gibbous, 72% of the Moon is Illuminated
May 10
Waning Gibbous
May 12
Last Quarter
May 20
New
May 28
First Quarter
Jun 4
Full

Hourly Weather History & Observations

Time (MDT) Temp. Windchill Dew Point Humidity Pressure Visibility Wind Dir Wind Speed Gust Speed Precip Events Conditions
12:53 AM 57.9 °F - 33.1 °F 39% 29.64 in 10.0 mi South 15.0 mph - N/A   Clear
1:53 AM 51.1 °F - 34.0 °F 52% 29.64 in 10.0 mi SSE 9.2 mph - N/A   Clear
2:53 AM 54.0 °F - 34.0 °F 47% 29.62 in 10.0 mi South 11.5 mph - N/A   Clear
3:53 AM 54.0 °F - 33.1 °F 45% 29.62 in 10.0 mi ESE 6.9 mph - N/A   Clear
4:53 AM 48.9 °F - 34.0 °F 56% 29.61 in 10.0 mi SSE 10.4 mph - N/A   Clear
5:53 AM 42.1 °F 37.1 °F 33.1 °F 70% 29.65 in 10.0 mi NNW 8.1 mph - N/A   Clear
6:53 AM 55.9 °F - 34.0 °F 44% 29.63 in 10.0 mi West 5.8 mph - N/A   Clear
7:53 AM 57.9 °F - 36.0 °F 44% 29.69 in 10.0 mi NW 16.1 mph 20.7 mph N/A   Clear
8:53 AM 60.1 °F - 36.0 °F 41% 29.70 in 10.0 mi NNW 16.1 mph - N/A   Clear
9:53 AM 63.0 °F - 37.0 °F 38% 29.70 in 10.0 mi NNW 19.6 mph 25.3 mph N/A   Clear
10:53 AM 66.0 °F - 36.0 °F 33% 29.69 in 10.0 mi NNW 18.4 mph 26.5 mph N/A   Clear
11:53 AM 66.9 °F - 35.1 °F 31% 29.68 in 10.0 mi North 16.1 mph - N/A   Clear
12:53 PM 69.1 °F - 35.1 °F 29% 29.69 in 10.0 mi North 17.3 mph - N/A   Clear
1:53 PM 66.9 °F - 35.1 °F 31% 29.74 in 10.0 mi NNW 23.0 mph 28.8 mph N/A   Clear
2:53 PM 66.0 °F - 37.0 °F 34% 29.77 in 10.0 mi NNW 23.0 mph 34.5 mph N/A   Clear
3:53 PM 57.9 °F - 37.9 °F 47% 29.85 in 10.0 mi North 31.1 mph 44.9 mph N/A   Mostly Cloudy
4:53 PM 51.1 °F - 36.0 °F 56% 29.91 in 10.0 mi North 27.6 mph 36.8 mph N/A   Overcast
5:51 PM 46.4 °F 38.5 °F 35.6 °F 66% 29.99 in 10.0 mi NNW 21.9 mph 32.2 mph N/A   Overcast
5:53 PM 46.9 °F - 36.0 °F 66% 29.99 in 10.0 mi North 24.2 mph 32.2 mph N/A   Overcast
6:18 PM 46.4 °F 39.8 °F 35.6 °F 66% 30.01 in 10.0 mi North 16.1 mph 25.3 mph N/A   Overcast
6:53 PM 46.0 °F 38.0 °F 30.0 °F 54% 29.96 in 10.0 mi North 21.9 mph 29.9 mph N/A   Partly Cloudy
7:53 PM 44.1 °F 37.7 °F 30.0 °F 58% 29.99 in 10.0 mi North 12.7 mph - N/A   Clear
8:53 PM 42.1 °F 35.7 °F 30.9 °F 65% 30.02 in 10.0 mi North 11.5 mph - N/A   Clear
9:53 PM 42.1 °F 36.1 °F 32.0 °F 67% 30.05 in 10.0 mi North 10.4 mph - N/A   Scattered Clouds
10:53 PM 43.0 °F 37.7 °F 32.0 °F 65% 30.05 in 10.0 mi North 9.2 mph - N/A   Overcast
11:53 PM 39.9 °F 33.9 °F 32.0 °F 73% 30.07 in 10.0 mi North 9.2 mph - N/A   Scattered Clouds